Flag for Finland Weather past 2 weeks in Rovaniemi, Finland

Now
30 °F

Passing clouds.


Feels Like: 23 °F
Forecast: 26 / 34 °F
Wind: 8 mph from Southwest

Location: Rovaniemi Airport

Current Time: Mar 28, 2015 at 8:55:12 PM

Latest Report: Mar 28, 2015 at 8:20 PM


Visibility: N/A

Pressure: 29.65 "Hg

Humidity: 100%

Dew point: 30 °F

Location of RovaniemiLocation

Historic Weather in Rovaniemi — Graph

°F

Rovaniemi temperature yesterday

Maximum temperature yesterday: 37 °F (at 3:20 PM)
Minimum temperature yesterday: 16 °F (at 4:50 AM)
Average temperature yesterday: 28 °F

Past Weeks' High & Low Weather Summary

 TemperatureHumidityPressure
High45 °F (Mar 14, 12:50 PM)100% (Mar 17, 11:20 PM)30.89 "Hg (Mar 17, 11:20 PM)
Low5 °F (Mar 22, 4:50 AM)25% (Mar 27, 1:50 PM)29.09 "Hg (Mar 23, 7:50 PM)
Average26 °F75%30.12 "Hg
* Reported Mar 13 7:20 PM — Mar 28 7:20 PM, Rovaniemi, Weather by CustomWeather, © 2015

Note: Actual official high and low records may vary slightly from our data, if they occured in-between our weather recording intervals... More about our weather records

Advertising

Rovaniemi weather history for previous 24 hours

 ConditionsComfort  
Time TempWeatherWind HumidityBarometerVisibility
7:20 PM
Sat, Mar 28
32 °FSnow flurries. Fog.9 mph100%29.62 "Hg3 mi
6:50 PM32 °FBroken clouds.9 mph100%29.62 "HgN/A
6:20 PM32 °FBroken clouds.10 mph100%29.62 "HgN/A
5:50 PM32 °FLight snow. Partly sunny.12 mph100%29.62 "HgN/A
5:20 PM32 °FSnow flurries. Broken clouds.12 mph100%29.62 "HgN/A
4:50 PM32 °FLight snow. Partly sunny.12 mph100%29.62 "Hg6 mi
4:20 PM32 °FLight snow. Dense fog.12 mph100%29.62 "Hg1 mi
3:50 PM32 °FLight snow. Partly sunny.10 mph100%29.62 "Hg2 mi
3:20 PM32 °FLight snow. Partly sunny.9 mph100%29.62 "Hg2 mi
2:50 PM32 °FLight snow. Broken clouds.9 mph100%29.62 "Hg1 mi
2:20 PM32 °FLight snow. Partly sunny.8 mph100%29.62 "Hg2 mi
1:50 PM32 °FLight snow. Dense fog.6 mph100%29.62 "Hg1 mi
1:20 PM32 °FSnow. Dense fog.7 mph100%29.62 "Hg1 mi
12:50 PM32 °FSnow. Dense fog.6 mph100%29.62 "Hg1 mi
12:20 PM32 °FSnow. Dense fog.7 mph100%29.65 "Hg1 mi
11:50 AM32 °FSnow. Dense fog.8 mph100%29.65 "Hg1 mi
11:20 AM32 °FLight snow. Dense fog.8 mph100%29.65 "Hg1 mi
10:50 AM32 °FLight snow. Broken clouds.8 mph100%29.65 "Hg1 mi
10:20 AM32 °FSleet. Partly sunny.8 mph100%29.68 "Hg3 mi
9:50 AM32 °FSleet. Partly sunny.9 mph100%29.68 "Hg2 mi
9:20 AM32 °FLight snow. Partly sunny.9 mph100%29.71 "Hg2 mi
8:50 AM30 °FLight snow. More clouds than sun.9 mph100%29.71 "Hg3 mi
8:20 AM30 °FLight snow. Broken clouds.8 mph100%29.71 "Hg4 mi
7:50 AM30 °FLight snow. More clouds than sun.8 mph100%29.74 "Hg3 mi
7:20 AM30 °FLight snow. Broken clouds.8 mph100%29.74 "Hg5 mi
6:50 AM28 °FLight snow. More clouds than sun.8 mph100%29.74 "Hg2 mi
6:20 AM28 °FLight snow. Broken clouds.9 mph100%29.74 "Hg3 mi
5:20 AM28 °FLight snow. Passing clouds.7 mph100%29.77 "HgN/A
4:50 AM28 °FSnow flurries. Mostly cloudy.8 mph100%29.77 "Hg3 mi
4:20 AM28 °FLight snow. Partly cloudy.7 mph100%29.80 "HgN/A
3:50 AM28 °FLight snow. Overcast.9 mph100%29.80 "Hg3 mi
3:20 AM28 °FLight snow. Passing clouds.7 mph93%29.80 "Hg4 mi
2:50 AM28 °FLight snow. Mostly cloudy.8 mph93%29.83 "Hg2 mi
2:20 AM28 °FLight snow. Passing clouds.8 mph93%29.83 "Hg2 mi
1:50 AM28 °FLight snow. Mostly cloudy.8 mph93%29.83 "HgN/A
1:20 AM27 °FLight snow. Partly cloudy.8 mph100%29.86 "Hg5 mi
12:50 AM27 °FLight snow. Mostly cloudy.9 mph100%29.86 "Hg2 mi
12:20 AM28 °FLight snow. Passing clouds.9 mph86%29.89 "HgN/A
11:50 PM
Fri, Mar 27
28 °FLight snow. Overcast.13 mph80%29.89 "Hg5 mi
11:20 PM30 °FLight snow. Passing clouds.16 mph69%29.89 "HgN/A
10:50 PM32 °FPassing clouds.15 mph47%29.89 "HgN/A
10:20 PM32 °FPartly cloudy.10 mph44%29.89 "HgN/A
9:50 PM34 °FMostly cloudy.14 mph41%29.92 "HgN/A
9:20 PM32 °FPassing clouds.14 mph40%29.92 "HgN/A
8:50 PM32 °FPassing clouds.13 mph37%29.92 "HgN/A
8:20 PM32 °FClear.9 mph34%29.92 "Hg10 mi
Weather by CustomWeather, © 2015

See weather overviewHow to use our weather pages